STARLINK-1714, 46562

Orbit data source: Space-Track

STARLINK-1714, 46562 is a payload satellite owned by SpaceX/Seattle (US) in LEO that was launched on Tue, 06 Oct 2020 UTC via an FALCON 9 launch vehicle from the Air Force Eastern Test Range (AFETR). Payloads include a variety of satellites, spacecraft, and rockets equipped with specific instruments for various scientific and technological missions. These include communications satellites like Starlink; space stations such as the ISS; scientific satellites like the Hubble; Earth observation satellites from companies like Planet Labs, Umbra, and HawkEye 360; GPS; miniature CubeSats for education and research; and military/defense satellites.

Loading next visibility...
STARLINK-1714 details
Identifier
46562, 2020-070AG
Orbit
LEO
Last TLE update8 hours ago
Origin
Flag of USSpaceX/Seattle (US)
ManufacturerSpaceX/Seattle
MissionOperational Commercial Communications
Bus & MotorSTARLINK, Unknown motor
Mass260 kg wet, ~248 kg dry
Launch date (UTC)
2020-10-06 (4 years ago)
Launch vehicle
FALCON 9
Launch site
Air Force Eastern Test Range (AFETR)
Object type
Payload
Rocket body
Debris
Shape & HBRBox + 1 Pan, 8.86 m
Radar Cross Section13.562 m², Large (>1 m²)

Expand to show TLE details & history

TLE from 8 hours ago
0 STARLINK-1714
1 46562U 20070AG  24361.12153068  .00022822  00000-0  15446-2 0  9992
2 46562  53.0550 325.8902 0001324  83.7447 276.3693 15.06434923233376
Epoch: 2024-12-26T02:55Z
Definitive object data (Epoch: 2024-12-26T02:55:00.25Z)
Latitude-0.00002°
Longitude-172.96633°
Altitude547.882 km
Speed7.589 km/s
True Right ascension21h 43m 33s
True Declination0° 00' 00"
Sunlit
Object was in daylight at TLE epoch
Visualization TLE readout
Latitude-7.76798°
Longitude179.69608°
Altitude549.341 km
Speed7.588 km/s
Apparent Right ascension21h 37m 59s
Apparent Declination-23° 11' 28"
Sunlit
Object is in daylight
Visualization observer readout
Local Sidereal Time10:11:22
Azimuth25.353° NE
Elevation-71.848°
Doppler factor1
Orbital elements
Apogee altitude548.292 km
Perigee altitude546.458 km
Semi-major axis6,925.512 km
Eccentricity0.0001324
Inclination53.055°
RAAN325.8902°
Arg. of periapsis83.7447°
True anomaly276.35422°
Mean anomaly276.3693°
Eccentric anomaly276.36176°
Mean motion3.76587 °/min
BSTAR0.0015446
Orbital period95.6 mins
Loading maneuver chart data...
Loading historical data...
Loading historical data...
Loading historical data...
Loading historical data...
Loading historical data...
Loading historical data...
Loading historical data...

STARLINK-1714 Visibility forecast

Observer location: undefined°, undefined

Span
Click to sort rows by Start time (UTC) header in descending order
Start Az.
Max El. time (UTC)
Max El. Az.
Max El.
End time (UTC)
End Az.
6 mins2024-12-26 23:46:07.080Z191.561° SSW2024-12-26 23:49:07.080Z135.815° SSE28.028°2024-12-26 23:52:07.080Z73.885° E
6 mins2024-12-27 01:26:07.080Z267.935° W2024-12-27 01:29:07.080Z344.029° N31.054°2024-12-27 01:32:07.080Z35.64° NE
6 mins2024-12-27 06:28:07.080Z333.612° NNW2024-12-27 06:30:07.080Z16.798° NNE30.452°2024-12-27 06:34:07.080Z98.722° ESE
5 mins2024-12-27 08:08:07.080Z275.331° WNW2024-12-27 08:10:07.080Z223.728° SW28.968°2024-12-27 08:13:07.080Z166.981° S
|